Retour au catalogue

CZ-6A DEB

ActifSSO
NORAD 54292·DEBRIS·🇨🇳 China

Lancé Nov 11, 2022 depuis Taiyuan Satellite Launch Center

Loading…

Prochains Passages (prochaines 24 heures)

TLE

FraisSource: Space-Track

Époque: Sep 14, 2026, 06:05 UTC

1 54292U 22151AK  26257.25347950  .00000059  00000-0  61255-4 0  9997
2 54292  98.8809 249.7815 0063126 115.6606 245.1101 14.05798240196443

Suivez CZ-6A DEB en temps réel avec AllMySat

Download on the App Store